,,,PA_Meas_PMT16A,,PR_Meas_QMR101_102,,RH_Meas_QMH101,,SR_Meas_QMS101,,TA_Meas_QMH101,,GenWind,,GenWind,
date,time,status,PA,status,PR,status,RH,status,SR,status,TA,status,DirAvg,status,SpdAvg,
2009-10-08, 00:00:04,VALID,1002.96,VALID,0,VALID,75.2513,VALID,0,VALID,26.7434,VALID,41,VALID,1.2875,
2009-10-08, 00:01:04,VALID,1002.95,VALID,0,VALID,74.9614,VALID,0,VALID,26.7414,VALID,28,VALID,1.89453,
2009-10-08, 00:02:04,VALID,1002.92,VALID,0,VALID,75.3123,VALID,0,VALID,26.7219,VALID,6,VALID,1.18086,
2009-10-08, 00:03:04,VALID,1002.89,VALID,0,VALID,75.2513,VALID,0,VALID,26.7004,VALID,15,VALID,1.36875,
2009-10-08, 00:04:04,VALID,1002.89,VALID,0,VALID,75.2055,VALID,0,VALID,26.7219,VALID,18,VALID,1.16484,
2009-10-08, 00:05:04,VALID,1002.86,VALID,0,VALID,75.2971,VALID,0,VALID,26.7414,VALID,25,VALID,1.39883,
2009-10-08, 00:06:04,VALID,1002.89,VALID,0,VALID,75.3428,VALID,0,VALID,26.7414,VALID,14,VALID,1.43125,
2009-10-08, 00:07:04,VALID,1002.87,VALID,0,VALID,75.2971,VALID,0,VALID,26.7394,VALID,18,VALID,1.28906,
2009-10-08, 00:08:04,VALID,1002.88,VALID,0,VALID,74.7325,VALID,0,VALID,26.7998,VALID,33,VALID,2.25195,
2009-10-08, 00:09:04,VALID,1002.87,VALID,0,VALID,74.7096,VALID,0,VALID,26.8193,VALID,14,VALID,1.63828,
2009-10-08, 00:10:04,VALID,1002.85,VALID,0,VALID,74.9003,VALID,0,VALID,26.7783,VALID,29,VALID,1.54414,
2009-10-08, 00:11:04,VALID,1002.82,VALID,0,VALID,75.2665,VALID,0,VALID,26.7804,VALID,27,VALID,1.3168,
2009-10-08, 00:12:04,VALID,1002.81,VALID,0,VALID,75.1216,VALID,0,VALID,26.7219,VALID,17,VALID,2.58047,
2009-10-08, 00:13:04,VALID,1002.81,VALID,0,VALID,75.2589,VALID,0,VALID,26.7219,VALID,27,VALID,2.46836,
2009-10-08, 00:14:04,VALID,1002.8,VALID,0,VALID,75.3047,VALID,0,VALID,26.7219,VALID,23,VALID,1.86484,
2009-10-08, 00:15:04,VALID,1002.84,VALID,0,VALID,75.4191,VALID,0,VALID,26.7024,VALID,29,VALID,2.37266,
2009-10-08, 00:16:04,VALID,1002.82,VALID,0,VALID,75.5183,VALID,0,VALID,26.7414,VALID,38,VALID,1.88906,
2009-10-08, 00:17:04,VALID,1002.76,VALID,0,VALID,75.2284,VALID,0,VALID,26.7024,VALID,27,VALID,3.02148,
2009-10-08, 00:18:04,VALID,1002.8,VALID,0,VALID,75.7777,VALID,0,VALID,26.6809,VALID,34,VALID,2.06484,
2009-10-08, 00:19:04,VALID,1002.8,VALID,0,VALID,75.915,VALID,0,VALID,26.6635,VALID,39,VALID,2.48008,
2009-10-08, 00:20:04,VALID,1002.79,VALID,0,VALID,76.3498,VALID,0,VALID,26.605,VALID,33,VALID,1.59453,
2009-10-08, 00:21:04,VALID,1002.81,VALID,0,VALID,76.3727,VALID,0,VALID,26.5855,VALID,35,VALID,1.80313,
2009-10-08, 00:22:04,VALID,1002.78,VALID,0,VALID,76.6397,VALID,0,VALID,26.5446,VALID,27,VALID,1.95508,
2009-10-08, 00:23:04,VALID,1002.76,VALID,0,VALID,76.7694,VALID,0,VALID,26.5855,VALID,17,VALID,1.5582,
2009-10-08, 00:24:04,VALID,1002.77,VALID,0,VALID,76.51,VALID,0,VALID,26.5661,VALID,30,VALID,2.03477,
2009-10-08, 00:25:04,VALID,1002.74,VALID,0,VALID,76.7236,VALID,0,VALID,26.5661,VALID,31,VALID,2.07578,
2009-10-08, 00:26:04,VALID,1002.73,VALID,0,VALID,76.5329,VALID,0,VALID,26.5466,VALID,19,VALID,1.64961,
2009-10-08, 00:27:04,VALID,1002.71,VALID,0,VALID,76.655,VALID,0,VALID,26.5251,VALID,49,VALID,1.64297,
2009-10-08, 00:28:04,VALID,1002.67,VALID,0,VALID,76.6474,VALID,0,VALID,26.5661,VALID,36,VALID,2.63672,
2009-10-08, 00:29:04,VALID,1002.63,VALID,0,VALID,76.3193,VALID,0,VALID,26.5466,VALID,20,VALID,2.65078,
2009-10-08, 00:30:04,VALID,1002.62,VALID,0,VALID,76.1973,VALID,0,VALID,26.5661,VALID,27,VALID,2.55039,
2009-10-08, 00:31:04,VALID,1002.59,VALID,0,VALID,75.4344,VALID,0,VALID,26.605,VALID,12,VALID,2.09922,
2009-10-08, 00:32:04,VALID,1002.59,VALID,0,VALID,75.9531,VALID,0,VALID,26.6245,VALID,22,VALID,1.78125,
2009-10-08, 00:33:04,VALID,1002.54,VALID,0,VALID,75.8768,VALID,0,VALID,26.644,VALID,21,VALID,1.90039,
2009-10-08, 00:34:04,VALID,1002.5,VALID,0,VALID,75.7853,VALID,0,VALID,26.644,VALID,22,VALID,1.49141,
2009-10-08, 00:35:04,VALID,1002.49,VALID,0,VALID,75.1521,VALID,0,VALID,26.683,VALID,26,VALID,1.57656,
2009-10-08, 00:36:04,VALID,1002.51,VALID,0,VALID,75.1674,VALID,0,VALID,26.7024,VALID,23,VALID,2.25898,
2009-10-08, 00:37:04,VALID,1002.46,VALID,0,VALID,75.5259,VALID,0,VALID,26.7219,VALID,36,VALID,1.85508,
2009-10-08, 00:38:04,VALID,1002.39,VALID,0,VALID,75.2971,VALID,0,VALID,26.7219,VALID,27,VALID,2.84414,
2009-10-08, 00:39:04,VALID,1002.36,VALID,0,VALID,75.6327,VALID,0,VALID,26.7804,VALID,11,VALID,2.27695,
2009-10-08, 00:40:04,VALID,1002.39,VALID,0,VALID,76.0065,VALID,0,VALID,26.7609,VALID,23,VALID,1.40977,
2009-10-08, 00:41:04,VALID,1002.38,VALID,0,VALID,75.9379,VALID,0,VALID,26.7414,VALID,20,VALID,1.99336,
2009-10-08, 00:42:04,VALID,1002.36,VALID,0,VALID,76.3346,VALID,0,VALID,26.7004,VALID,73,VALID,1.45117,
2009-10-08, 00:43:04,VALID,1002.4,VALID,0,VALID,76.4872,VALID,0,VALID,26.7219,VALID,28,VALID,1.66523,
2009-10-08, 00:44:04,VALID,1002.36,VALID,0,VALID,76.388,VALID,0,VALID,26.7414,VALID,22,VALID,2.24141,
2009-10-08, 00:45:04,VALID,1002.35,VALID,0,VALID,76.3803,VALID,0,VALID,26.7414,VALID,24,VALID,2.28125,
2009-10-08, 00:46:04,VALID,1002.35,VALID,0,VALID,76.6626,VALID,0,VALID,26.7414,VALID,26,VALID,1.52461,
2009-10-08, 00:47:04,VALID,1002.33,VALID,0,VALID,76.7923,VALID,0,VALID,26.683,VALID,29,VALID,1.47734,
2009-10-08, 00:48:04,VALID,1002.33,VALID,0,VALID,77.1432,VALID,0,VALID,26.6245,VALID,12,VALID,1.58945,
2009-10-08, 00:49:04,VALID,1002.31,VALID,0,VALID,77.2577,VALID,0,VALID,26.605,VALID,19,VALID,1.71602,
2009-10-08, 00:50:04,VALID,1002.3,VALID,0,VALID,77.0441,VALID,0,VALID,26.644,VALID,1,VALID,2.23789,
2009-10-08, 00:51:04,VALID,1002.3,VALID,0,VALID,77.3034,VALID,0,VALID,26.6245,VALID,17,VALID,1.02422,
2009-10-08, 00:52:04,VALID,1002.31,VALID,0,VALID,77.8451,VALID,0,VALID,26.644,VALID,27,VALID,2.74336,
2009-10-08, 00:53:04,VALID,1002.3,VALID,0,VALID,77.723,VALID,0,VALID,26.642,VALID,4,VALID,2.0793,
2009-10-08, 00:54:04,VALID,1002.31,VALID,0,VALID,78.2113,VALID,0,VALID,26.644,VALID,9,VALID,1.62148,
2009-10-08, 00:55:04,VALID,1002.29,VALID,0,VALID,78.73,VALID,0,VALID,26.644,VALID,14,VALID,2.26055,
2009-10-08, 00:56:04,VALID,1002.26,VALID,0,VALID,78.2952,VALID,0,VALID,26.6635,VALID,18,VALID,2.11719,
2009-10-08, 00:57:04,VALID,1002.23,VALID,0,VALID,78.0358,VALID,0,VALID,26.6635,VALID,29,VALID,2.17227,
2009-10-08, 00:58:04,VALID,1002.24,VALID,0,VALID,78.3105,VALID,0,VALID,26.644,VALID,23,VALID,1.12969,
2009-10-08, 00:59:04,VALID,1002.23,VALID,0,VALID,78.3867,VALID,0,VALID,26.6245,VALID,22,VALID,1.78086,
2009-10-08, 01:00:04,VALID,1002.21,VALID,0,VALID,78.3257,VALID,0,VALID,26.644,VALID,9,VALID,1.75078,
2009-10-08, 01:01:04,VALID,1002.2,VALID,0,VALID,78.5851,VALID,0,VALID,26.6245,VALID,39,VALID,1.3793,
2009-10-08, 01:02:04,VALID,1002.23,VALID,0,VALID,78.5775,VALID,0,VALID,26.605,VALID,27,VALID,1.06719,
2009-10-08, 01:03:04,VALID,1002.24,VALID,0,VALID,78.4401,VALID,0,VALID,26.605,VALID,26,VALID,1.70977,
2009-10-08, 01:04:04,VALID,1002.21,VALID,0,VALID,78.2418,VALID,0,VALID,26.6635,VALID,43,VALID,2.79688,
2009-10-08, 01:05:04,VALID,1002.2,VALID,0,VALID,78.1045,VALID,0,VALID,26.6635,VALID,23,VALID,2.23711,
2009-10-08, 01:06:04,VALID,1002.2,VALID,0,VALID,77.8298,VALID,0,VALID,26.683,VALID,35,VALID,2.32422,
2009-10-08, 01:07:04,VALID,1002.17,VALID,0,VALID,77.929,VALID,0,VALID,26.7024,VALID,19,VALID,1.44492,
2009-10-08, 01:08:04,VALID,1002.18,VALID,0,VALID,77.9061,VALID,0,VALID,26.683,VALID,31,VALID,1.84922,
2009-10-08, 01:09:04,VALID,1002.17,VALID,0,VALID,77.9061,VALID,0,VALID,26.6635,VALID,29,VALID,2.02422,
2009-10-08, 01:10:04,VALID,1002.13,VALID,0,VALID,77.9977,VALID,0,VALID,26.6245,VALID,21,VALID,1.55898,
2009-10-08, 01:11:04,VALID,1002.1,VALID,0,VALID,78.2342,VALID,0,VALID,26.6245,VALID,23,VALID,1.87773,
2009-10-08, 01:12:04,VALID,1002.07,VALID,0,VALID,78.6004,VALID,0,VALID,26.5641,VALID,23,VALID,1.18789,
2009-10-08, 01:13:04,VALID,1002.06,VALID,0,VALID,78.4936,VALID,0,VALID,26.5661,VALID,24,VALID,1.5043,
2009-10-08, 01:14:04,VALID,1002.07,VALID,0,VALID,78.5012,VALID,0,VALID,26.5661,VALID,20,VALID,1.65,
2009-10-08, 01:15:04,VALID,1002.05,VALID,0,VALID,78.3486,VALID,0,VALID,26.6245,VALID,39,VALID,1.99375,
2009-10-08, 01:16:04,VALID,1002.05,VALID,0,VALID,78.0206,VALID,0,VALID,26.6245,VALID,40,VALID,1.31445,
2009-10-08, 01:17:04,VALID,1002.09,VALID,0,VALID,78.0587,VALID,0,VALID,26.6635,VALID,28,VALID,1.14766,
2009-10-08, 01:18:04,VALID,1002.08,VALID,0,VALID,78.1045,VALID,0,VALID,26.6635,VALID,39,VALID,1.72148,
2009-10-08, 01:19:04,VALID,1002.06,VALID,0,VALID,78.1655,VALID,0,VALID,26.644,VALID,26,VALID,1.55859,
2009-10-08, 01:20:04,VALID,1002.04,VALID,0,VALID,78.3028,VALID,0,VALID,26.6245,VALID,17,VALID,1.40977,
2009-10-08, 01:21:04,VALID,1001.99,VALID,0,VALID,78.2723,VALID,0,VALID,26.5855,VALID,59,VALID,1.56758,
2009-10-08, 01:22:04,VALID,1001.99,VALID,0,VALID,78.1808,VALID,0,VALID,26.6245,VALID,34,VALID,2.62227,
2009-10-08, 01:23:04,VALID,1001.98,VALID,0,VALID,78.3486,VALID,0,VALID,26.646,VALID,13,VALID,1.57422,
2009-10-08, 01:24:04,VALID,1001.93,VALID,0,VALID,78.1731,VALID,0,VALID,26.6245,VALID,23,VALID,2.55742,
2009-10-08, 01:25:04,VALID,1001.91,VALID,0,VALID,78.3333,VALID,0,VALID,26.605,VALID,356,VALID,1.94102,
2009-10-08, 01:26:04,VALID,1001.88,VALID,0,VALID,78.2647,VALID,0,VALID,26.603,VALID,26,VALID,2.1082,
2009-10-08, 01:27:04,VALID,1001.92,VALID,0,VALID,78.3257,VALID,0,VALID,26.644,VALID,25,VALID,1.88242,
2009-10-08, 01:28:04,VALID,1001.9,VALID,0,VALID,78.4173,VALID,0,VALID,26.6225,VALID,22,VALID,1.8125,
2009-10-08, 01:29:04,VALID,1001.9,VALID,0,VALID,78.3181,VALID,0,VALID,26.605,VALID,22,VALID,2.72344,
2009-10-08, 01:30:04,VALID,1001.92,VALID,0,VALID,78.3181,VALID,0,VALID,26.6245,VALID,28,VALID,2.03867,
2009-10-08, 01:31:04,VALID,1001.99,VALID,0,VALID,78.5851,VALID,0,VALID,26.605,VALID,52,VALID,0.864453,
2009-10-08, 01:32:04,VALID,1002,VALID,0,VALID,78.341,VALID,0.100563,VALID,26.5855,VALID,37,VALID,2.56914,
2009-10-08, 01:33:04,VALID,1002.04,VALID,0,VALID,78.4401,VALID,0,VALID,26.605,VALID,12,VALID,2.11914,
2009-10-08, 01:34:04,VALID,1002.06,VALID,0,VALID,78.341,VALID,0,VALID,26.605,VALID,26,VALID,2.03711,
2009-10-08, 01:35:04,VALID,1002.1,VALID,0,VALID,78.4783,VALID,0,VALID,26.605,VALID,20,VALID,1.72812,
2009-10-08, 01:36:04,VALID,1002.11,VALID,0,VALID,78.5622,VALID,0,VALID,26.605,VALID,21,VALID,1.48633,
2009-10-08, 01:37:04,VALID,1002.11,VALID,0,VALID,78.3105,VALID,0,VALID,26.5835,VALID,30,VALID,2.21797,
2009-10-08, 01:38:04,VALID,1002.14,VALID,0,VALID,78.7911,VALID,0,VALID,26.5855,VALID,19,VALID,1.21563,
2009-10-08, 01:39:04,VALID,1002.16,VALID,0,VALID,79.0962,VALID,0,VALID,26.5251,VALID,355,VALID,1.26953,
2009-10-08, 01:40:04,VALID,1002.18,VALID,0,VALID,79.2107,VALID,0,VALID,26.5271,VALID,18,VALID,1.37539,
2009-10-08, 01:41:04,VALID,1002.17,VALID,0,VALID,78.9894,VALID,0,VALID,26.5251,VALID,25,VALID,1.71836,
2009-10-08, 01:42:04,VALID,1002.19,VALID,0,VALID,79.0505,VALID,0,VALID,26.5446,VALID,26,VALID,1.80469,
2009-10-08, 01:43:04,VALID,1002.2,VALID,0,VALID,78.8063,VALID,0,VALID,26.5661,VALID,19,VALID,1.86602,
2009-10-08, 01:44:04,VALID,1002.17,VALID,0,VALID,78.8369,VALID,0,VALID,26.5641,VALID,29,VALID,1.45664,
2009-10-08, 01:45:04,VALID,1002.16,VALID,0,VALID,78.5622,VALID,0,VALID,26.605,VALID,24,VALID,2.18203,
2009-10-08, 01:46:04,VALID,1002.14,VALID,0,VALID,78.3944,VALID,0,VALID,26.644,VALID,28,VALID,2.83867,
2009-10-08, 01:47:04,VALID,1002.11,VALID,0,VALID,78.2952,VALID,0,VALID,26.6635,VALID,27,VALID,1.91953,
2009-10-08, 01:48:04,VALID,1002.1,VALID,0,VALID,78.0434,VALID,0,VALID,26.7219,VALID,26,VALID,2.8918,
2009-10-08, 01:49:04,VALID,1002.04,VALID,0,VALID,78.1808,VALID,0,VALID,26.7219,VALID,28,VALID,1.48008,
2009-10-08, 01:50:04,VALID,1002,VALID,0,VALID,78.3105,VALID,0,VALID,26.7024,VALID,29,VALID,1.24023,
2009-10-08, 01:51:04,VALID,1001.97,VALID,0,VALID,78.1274,VALID,0,VALID,26.7219,VALID,13,VALID,2.43789,
2009-10-08, 01:52:04,VALID,1001.91,VALID,0,VALID,78.3944,VALID,0,VALID,26.7414,VALID,35,VALID,2.04141,
2009-10-08, 01:53:04,VALID,1001.92,VALID,0,VALID,78.4554,VALID,0,VALID,26.7414,VALID,25,VALID,1.56602,
2009-10-08, 01:54:04,VALID,1001.88,VALID,0,VALID,78.341,VALID,0,VALID,26.683,VALID,19,VALID,2.72773,
2009-10-08, 01:55:04,VALID,1001.85,VALID,0,VALID,78.6995,VALID,0,VALID,26.683,VALID,24,VALID,1.83828,
2009-10-08, 01:56:04,VALID,1001.85,VALID,0,VALID,78.7682,VALID,0,VALID,26.685,VALID,29,VALID,1.32773,
2009-10-08, 01:57:04,VALID,1001.89,VALID,0,VALID,78.7148,VALID,0,VALID,26.6635,VALID,32,VALID,2.68438,
2009-10-08, 01:58:04,VALID,1001.93,VALID,0,VALID,78.7682,VALID,0,VALID,26.6635,VALID,30,VALID,2.63555,
2009-10-08, 01:59:04,VALID,1001.94,VALID,0,VALID,78.7834,VALID,0,VALID,26.683,VALID,25,VALID,1.70547,
2009-10-08, 02:00:04,VALID,1001.92,VALID,0,VALID,78.7148,VALID,0,VALID,26.6614,VALID,37,VALID,2.30703,
2009-10-08, 02:01:04,VALID,1001.96,VALID,0,VALID,79.0505,VALID,0,VALID,26.683,VALID,23,VALID,1.42383,
2009-10-08, 02:02:04,VALID,1001.96,VALID,0,VALID,79.1344,VALID,0,VALID,26.7024,VALID,9,VALID,1.19336,
2009-10-08, 02:03:04,VALID,1001.95,VALID,0,VALID,79.3022,VALID,0,VALID,26.683,VALID,25,VALID,1.64258,
2009-10-08, 02:04:04,VALID,1001.96,VALID,0,VALID,79.1802,VALID,0,VALID,26.683,VALID,36,VALID,1.89961,
2009-10-08, 02:05:04,VALID,1001.95,VALID,0,VALID,79.3404,VALID,0,VALID,26.6635,VALID,31,VALID,0.979297,
2009-10-08, 02:06:04,VALID,1001.95,VALID,0,VALID,79.3098,VALID,0,VALID,26.644,VALID,20,VALID,1.75781,
2009-10-08, 02:07:04,VALID,1001.96,VALID,0,VALID,79.5921,VALID,0,VALID,26.6225,VALID,23,VALID,0.813281,
2009-10-08, 02:08:04,VALID,1001.94,VALID,0,VALID,79.7752,VALID,0,VALID,26.646,VALID,12,VALID,0.876172,
2009-10-08, 02:09:04,VALID,1001.95,VALID,0,VALID,79.7371,VALID,0,VALID,26.5855,VALID,29,VALID,1.32187,
2009-10-08, 02:10:04,VALID,1001.98,VALID,0,VALID,80.0193,VALID,0,VALID,26.5466,VALID,349,VALID,1.44766,
2009-10-08, 02:11:04,VALID,1001.98,VALID,0,VALID,80.0346,VALID,0,VALID,26.5076,VALID,349,VALID,1.47773,
2009-10-08, 02:12:04,VALID,1001.95,VALID,0,VALID,80.2024,VALID,0,VALID,26.4667,VALID,7,VALID,3.31953,
2009-10-08, 02:13:04,VALID,1001.91,VALID,0,VALID,80.5839,VALID,0,VALID,26.4707,VALID,353,VALID,1.13008,
2009-10-08, 02:14:04,VALID,1001.91,VALID,0,VALID,80.767,VALID,0,VALID,26.3907,VALID,356,VALID,1.91367,
2009-10-08, 02:15:04,VALID,1001.87,VALID,0,VALID,81.0034,VALID,0,VALID,26.3518,VALID,355,VALID,1.62188,
2009-10-08, 02:16:04,VALID,1001.86,VALID,0,VALID,81.2399,VALID,0,VALID,26.2933,VALID,353,VALID,0.658984,
2009-10-08, 02:17:04,VALID,1001.78,VALID,0,VALID,81.3086,VALID,0,VALID,26.2544,VALID,355,VALID,3.01094,
2009-10-08, 02:18:04,VALID,1001.76,VALID,0,VALID,81.629,VALID,0,VALID,26.2154,VALID,24,VALID,1.37773,
2009-10-08, 02:19:04,VALID,1001.75,VALID,0,VALID,81.8274,VALID,0,VALID,26.157,VALID,4,VALID,1.12383,
2009-10-08, 02:20:04,VALID,1001.72,VALID,0,VALID,81.9647,VALID,0,VALID,26.118,VALID,359,VALID,1.54023,
2009-10-08, 02:21:04,VALID,1001.67,VALID,0,VALID,82.1554,VALID,0,VALID,26.0985,VALID,348,VALID,1.0918,
2009-10-08, 02:22:04,VALID,1001.64,VALID,0,VALID,82.308,VALID,0,VALID,26.0401,VALID,354,VALID,1.7457,
2009-10-08, 02:23:04,VALID,1001.59,VALID,0,VALID,82.5903,VALID,0,VALID,26.0206,VALID,1,VALID,1.04922,
2009-10-08, 02:24:04,VALID,1001.61,VALID,0,VALID,82.7047,VALID,0,VALID,26.0226,VALID,12,VALID,1.70859,
2009-10-08, 02:25:04,VALID,1001.6,VALID,0,VALID,82.7657,VALID,0,VALID,26.0012,VALID,354,VALID,1.43672,
2009-10-08, 02:26:04,VALID,1001.59,VALID,0,VALID,82.8039,VALID,0,VALID,25.9622,VALID,354,VALID,1.55195,
2009-10-08, 02:27:04,VALID,1001.57,VALID,0,VALID,83.0098,VALID,0,VALID,25.9232,VALID,351,VALID,1.46719,
2009-10-08, 02:28:04,VALID,1001.54,VALID,0,VALID,83.2235,VALID,0,VALID,25.8629,VALID,357,VALID,1.08164,
2009-10-08, 02:29:04,VALID,1001.53,VALID,0,VALID,83.3913,VALID,0,VALID,25.8453,VALID,354,VALID,1.15586,
2009-10-08, 02:30:04,VALID,1001.51,VALID,0,VALID,83.5057,VALID,0,VALID,25.8044,VALID,353,VALID,1.36914,
2009-10-08, 02:31:04,VALID,1001.53,VALID,0,VALID,83.643,VALID,0,VALID,25.7869,VALID,360,VALID,1.16094,
2009-10-08, 02:32:04,VALID,1001.51,VALID,0,VALID,83.7727,VALID,0,VALID,25.7869,VALID,11,VALID,1.64375,
2009-10-08, 02:33:04,VALID,1001.53,VALID,0,VALID,83.8643,VALID,0,VALID,25.7674,VALID,347,VALID,1.03516,
2009-10-08, 02:34:04,VALID,1001.53,VALID,0,VALID,84.0321,VALID,0,VALID,25.748,VALID,10,VALID,0.810938,
2009-10-08, 02:35:04,VALID,1001.59,VALID,0,VALID,84.0321,VALID,0,VALID,25.7674,VALID,356,VALID,1.34492,
2009-10-08, 02:36:04,VALID,1001.6,VALID,0,VALID,84.116,VALID,0,VALID,25.7694,VALID,355,VALID,0.683984,
2009-10-08, 02:37:04,VALID,1001.67,VALID,0,VALID,84.1084,VALID,0,VALID,25.7674,VALID,346,VALID,1.23438,
2009-10-08, 02:38:04,VALID,1001.67,VALID,0,VALID,84.2686,VALID,0,VALID,25.748,VALID,13,VALID,0.6125,
2009-10-08, 02:39:04,VALID,1001.72,VALID,0,VALID,84.3602,VALID,0,VALID,25.748,VALID,11,VALID,0.449609,
2009-10-08, 02:40:04,VALID,1001.73,VALID,0,VALID,84.4288,VALID,0,VALID,25.7869,VALID,6,VALID,0.891406,
2009-10-08, 02:41:04,VALID,1001.78,VALID,0,VALID,84.1694,VALID,0,VALID,25.8064,VALID,346,VALID,0.413281,
2009-10-08, 02:42:04,VALID,1001.8,VALID,0,VALID,84.1771,VALID,0,VALID,25.8259,VALID,334,VALID,0.0582031,
2009-10-08, 02:43:04,VALID,1001.83,VALID,0,VALID,84.2305,VALID,0,VALID,25.8064,VALID,330,VALID,0.287109,
2009-10-08, 02:44:04,VALID,1001.83,VALID,0,VALID,84.1618,VALID,0,VALID,25.8064,VALID,301,VALID,0.755469,
2009-10-08, 02:45:04,VALID,1001.86,VALID,0,VALID,84.5661,VALID,0,VALID,25.748,VALID,285,VALID,0.194141,
2009-10-08, 02:46:04,VALID,1001.86,VALID,0,VALID,84.6272,VALID,0,VALID,25.7071,VALID,284,VALID,0.292969,
2009-10-08, 02:47:04,VALID,1001.84,VALID,0,VALID,84.7187,VALID,0,VALID,25.6895,VALID,284,VALID,0.551172,
2009-10-08, 02:48:04,VALID,1001.83,VALID,0,VALID,84.8026,VALID,0,VALID,25.7109,VALID,284,VALID,0.38125,
2009-10-08, 02:49:04,VALID,1001.82,VALID,0,VALID,85.0391,VALID,0,VALID,25.67,VALID,284,VALID,0.194531,
2009-10-08, 02:50:04,VALID,1001.82,VALID,0,VALID,85.2604,VALID,0,VALID,25.6506,VALID,284,VALID,0.421484,
2009-10-08, 02:51:04,VALID,1001.84,VALID,0,VALID,85.4358,VALID,0,VALID,25.5902,VALID,284,VALID,0.461328,
2009-10-08, 02:52:04,VALID,1001.85,VALID,0,VALID,85.3748,VALID,0,VALID,25.5532,VALID,37,VALID,0.569922,
2009-10-08, 02:53:04,VALID,1001.85,VALID,0,VALID,85.6723,VALID,0,VALID,25.5337,VALID,37,VALID,0.065625,
2009-10-08, 02:54:04,VALID,1001.84,VALID,0,VALID,85.9165,VALID,0,VALID,25.5142,VALID,37,VALID,0,
2009-10-08, 02:55:04,VALID,1001.88,VALID,0,VALID,86.0309,VALID,0,VALID,25.4948,VALID,37,VALID,0,
2009-10-08, 02:56:04,VALID,1001.86,VALID,0,VALID,86.0614,VALID,0,VALID,25.4558,VALID,37,VALID,0.0410156,
2009-10-08, 02:57:04,VALID,1001.88,VALID,0,VALID,86.1377,VALID,0,VALID,25.4363,VALID,37,VALID,0.33125,
2009-10-08, 02:58:04,VALID,1001.85,VALID,0,VALID,86.3132,VALID,0,VALID,25.4363,VALID,37,VALID,0.247656,
2009-10-08, 02:59:04,VALID,1001.84,VALID,0,VALID,86.481,VALID,0,VALID,25.4169,VALID,37,VALID,0.166016,
2009-10-08, 03:00:04,VALID,1001.82,VALID,0,VALID,86.7327,VALID,0,VALID,25.3974,VALID,37,VALID,0.139453,
2009-10-08, 03:01:04,VALID,1001.8,VALID,0,VALID,87.0455,VALID,0,VALID,25.3779,VALID,37,VALID,0.178125,
2009-10-08, 03:02:04,VALID,1001.78,VALID,0,VALID,87.2896,VALID,0,VALID,25.3584,VALID,37,VALID,0.310156,
2009-10-08, 03:03:04,VALID,1001.73,VALID,0,VALID,87.6101,VALID,0,VALID,25.3993,VALID,33,VALID,0.969531,
2009-10-08, 03:04:04,VALID,1001.76,VALID,0,VALID,87.5033,VALID,0,VALID,25.4948,VALID,22,VALID,1.54102,
2009-10-08, 03:05:04,VALID,1001.74,VALID,0,VALID,86.7633,VALID,0,VALID,25.67,VALID,2,VALID,0.770312,
2009-10-08, 03:06:04,VALID,1001.75,VALID,0,VALID,86.3589,VALID,0,VALID,25.7674,VALID,67,VALID,0.641016,
2009-10-08, 03:07:04,VALID,1001.78,VALID,0,VALID,85.9165,VALID,0,VALID,25.8453,VALID,23,VALID,0.691016,
2009-10-08, 03:08:04,VALID,1001.78,VALID,0,VALID,85.7715,VALID,0,VALID,25.8843,VALID,5,VALID,0.204297,
2009-10-08, 03:09:04,VALID,1001.79,VALID,0,VALID,85.6342,VALID,0,VALID,25.9622,VALID,12,VALID,1.14336,
2009-10-08, 03:10:04,VALID,1001.8,VALID,0,VALID,85.1841,VALID,0,VALID,26.0596,VALID,39,VALID,0.822656,
2009-10-08, 03:11:04,VALID,1001.79,VALID,0,VALID,84.9094,VALID,0,VALID,26.118,VALID,24,VALID,0.573438,
2009-10-08, 03:12:04,VALID,1001.79,VALID,0,VALID,84.734,VALID,0,VALID,26.1355,VALID,23,VALID,0.317187,
2009-10-08, 03:13:04,VALID,1001.82,VALID,0,VALID,84.6806,VALID,0,VALID,26.1959,VALID,317,VALID,0.5,
2009-10-08, 03:14:04,VALID,1001.84,VALID,0,VALID,84.5433,VALID,0,VALID,26.2349,VALID,12,VALID,0.291016,
2009-10-08, 03:15:04,VALID,1001.82,VALID,0,VALID,84.4822,VALID,0,VALID,26.2154,VALID,12,VALID,0.608203,
2009-10-08, 03:16:04,VALID,1001.78,VALID,0,VALID,84.4059,VALID,0,VALID,26.2349,VALID,12,VALID,0.254297,
2009-10-08, 03:17:04,VALID,1001.76,VALID,0,VALID,84.3983,VALID,0,VALID,26.2564,VALID,12,VALID,0.0914062,
2009-10-08, 03:18:04,VALID,1001.71,VALID,0,VALID,84.5509,VALID,0,VALID,26.2544,VALID,13,VALID,0.542188,
2009-10-08, 03:19:04,VALID,1001.68,VALID,0,VALID,84.4441,VALID,0,VALID,26.2544,VALID,12,VALID,0.0105469,
2009-10-08, 03:20:04,VALID,1001.64,VALID,0,VALID,84.5661,VALID,0,VALID,26.2349,VALID,328,VALID,0.628125,
2009-10-08, 03:21:04,VALID,1001.63,VALID,0,VALID,84.5585,VALID,0,VALID,26.2349,VALID,288,VALID,0.539844,
2009-10-08, 03:22:04,VALID,1001.62,VALID,0,VALID,84.6882,VALID,0,VALID,26.2349,VALID,317,VALID,0.214062,
2009-10-08, 03:23:04,VALID,1001.62,VALID,0,VALID,84.4136,VALID,0,VALID,26.2349,VALID,282,VALID,0.723437,
2009-10-08, 03:24:04,VALID,1001.63,VALID,0,VALID,84.6195,VALID,0,VALID,26.2349,VALID,285,VALID,0.480078,
2009-10-08, 03:25:04,VALID,1001.64,VALID,0,VALID,84.7797,VALID,0,VALID,26.1959,VALID,285,VALID,0.130859,
2009-10-08, 03:26:04,VALID,1001.66,VALID,0,VALID,84.7569,VALID,0,VALID,26.1765,VALID,358,VALID,0.641016,
2009-10-08, 03:27:04,VALID,1001.68,VALID,0,VALID,84.9781,VALID,0,VALID,26.118,VALID,344,VALID,0.102734,
2009-10-08, 03:28:04,VALID,1001.7,VALID,0,VALID,85.1612,VALID,0,VALID,26.0985,VALID,343,VALID,0.471094,
2009-10-08, 03:29:04,VALID,1001.75,VALID,0,VALID,85.4129,VALID,0,VALID,26.0596,VALID,350,VALID,0.459766,
2009-10-08, 03:30:04,VALID,1001.75,VALID,0,VALID,85.6189,VALID,0,VALID,26.0206,VALID,339,VALID,0.846484,
2009-10-08, 03:31:04,VALID,1001.75,VALID,0,VALID,85.7334,VALID,0,VALID,26.0401,VALID,310,VALID,0.3875,
2009-10-08, 03:32:04,VALID,1001.79,VALID,0,VALID,85.7791,VALID,0,VALID,25.9992,VALID,334,VALID,0.767187,
2009-10-08, 03:33:04,VALID,1001.8,VALID,0,VALID,85.8249,VALID,0,VALID,26.0206,VALID,339,VALID,0.795313,
2009-10-08, 03:34:04,VALID,1001.82,VALID,0,VALID,85.8096,VALID,0,VALID,26.0012,VALID,333,VALID,0.99375,
2009-10-08, 03:35:04,VALID,1001.81,VALID,0,VALID,85.6189,VALID,0,VALID,26.0401,VALID,296,VALID,0.633984,
2009-10-08, 03:36:04,VALID,1001.86,VALID,0,VALID,85.6494,VALID,0,VALID,26.0187,VALID,297,VALID,0.45625,
2009-10-08, 03:37:04,VALID,1001.9,VALID,0,VALID,85.7868,VALID,0,VALID,26.0401,VALID,276,VALID,0.273828,
2009-10-08, 03:38:04,VALID,1001.9,VALID,0,VALID,85.6723,VALID,0,VALID,26.0401,VALID,276,VALID,0.308984,
2009-10-08, 03:39:04,VALID,1001.94,VALID,0,VALID,85.7486,VALID,0,VALID,26.0401,VALID,276,VALID,0.450391,
2009-10-08, 03:40:04,VALID,1001.96,VALID,0,VALID,85.7715,VALID,0,VALID,26.0401,VALID,278,VALID,0.185937,
2009-10-08, 03:41:04,VALID,1001.98,VALID,0,VALID,85.8707,VALID,0,VALID,26.0401,VALID,279,VALID,0.554297,
2009-10-08, 03:42:04,VALID,1001.99,VALID,0,VALID,85.9165,VALID,0,VALID,26.0206,VALID,279,VALID,0.387891,
2009-10-08, 03:43:04,VALID,1002.02,VALID,0,VALID,85.7028,VALID,0,VALID,26.0401,VALID,289,VALID,0.724219,
2009-10-08, 03:44:04,VALID,1002.04,VALID,0,VALID,85.8325,VALID,0,VALID,26.0596,VALID,291,VALID,0.00195313,
2009-10-08, 03:45:04,VALID,1002.04,VALID,0,VALID,85.741,VALID,0,VALID,26.0381,VALID,291,VALID,0,
2009-10-08, 03:46:04,VALID,1002.04,VALID,0,VALID,85.9851,VALID,0,VALID,26.0791,VALID,291,VALID,0.125391,
2009-10-08, 03:47:04,VALID,1002.05,VALID,0,VALID,85.8859,VALID,0,VALID,26.0401,VALID,291,VALID,0,
2009-10-08, 03:48:04,VALID,1002.08,VALID,0,VALID,85.9165,VALID,0,VALID,26.0596,VALID,291,VALID,0,